#timestamp,LO_Frequency,Hit,StdDev 
1697850015.5,286046998.2,N
1697850035.3,286046998.1,N
1697850055.1,286047001.0,N
1697850075.9,286047000.7,N
1697850095.7,286047002.8,N
1697850115.6,286046999.8,N
1697850135.4,286047000.0,N
1697850155.2,286047000.8,N
1697850175.1,286047001.2,N
1697850176.0,286047001.2,N
1697850195.8,286046998.1,N
1697850215.6,286046999.9,N
1697850235.5,286046999.9,N
1697850255.3,286047000.5,N
1697850275.2,286047002.0,N
1697850295.9,286047002.1,N
1697850315.7,286047002.2,N
1697850335.6,286047002.6,N
1697850355.4,286047002.7,N
1697850375.2,286047002.7,N
1697850395.1,286047001.6,N
1697850396.0,286047001.6,N
1697850415.8,286047001.6,N
1697850435.7,286047002.0,N
1697850455.5,286047001.6,N
1697850475.3,286047001.7,N
1697850495.2,286047004.0,Y
1697850515.0,286047001.3,P
1697850515.9,286047001.3,P
1697850535.7,286047003.8,P
1697850555.6,286047003.6,Y
1697850575.4,286047001.6,P
1697850595.3,286047001.5,P
1697850615.1,286047005.4,P
1697850635.8,286047005.7,Y
1697850685.7,286047003.6,E
1697850695.6,286047003.8,N
1697850715.5,286047001.8,P
1697850735.3,286047001.8,N
1697850755.1,286047004.3,Y
1697850775.9,286047001.2,P
1697850795.7,286046999.5,N
1697850815.6,286046998.9,N
1697850835.4,286046998.5,N
1697850855.2,286046996.8,N
1697850875.1,286046996.7,N
1697850876.0,286046996.7,N
1697850895.8,286046999.6,N
1697850915.6,286046998.8,N
1697850935.5,286046996.5,N
1697850955.3,286046998.4,N
1697850975.2,286046997.0,N
1697850995.9,286046999.6,N
1697851015.7,286046999.3,N
1697851035.6,286046998.1,N
1697851055.4,286047000.8,N
1697851075.2,286046998.5,N
1697851095.1,286046999.2,N
1697851096.0,286046999.2,N
1697851115.8,286046998.7,N
1697851135.7,286047001.0,N
1697851155.5,286046998.9,N
1697851175.3,286046998.8,N
1697851195.2,286046999.3,N
1697851215.9,286046996.9,N
1697851235.7,286047001.1,N
1697851255.6,286046998.3,N
1697851275.4,286046998.1,N
1697851295.3,286046996.6,N
1697851315.1,286046998.3,N
1697851316.0,286046998.3,N
1697851335.8,286047000.9,N
1697851355.7,286047000.8,N
1697851375.5,286047000.8,N
1697851395.3,286047000.8,N
1697851415.2,286046999.3,N
1697851435.0,286046996.7,N
1697851435.9,286046996.7,N
1697851455.8,286046997.1,N
1697851475.6,286046997.5,N
1697851495.4,286046998.0,N
1697851515.3,286046994.9,Y
1697851535.1,286046996.9,P
1697851555.8,286046999.5,N
1697851575.7,286046996.6,P
1697851595.5,286046997.1,N
1697851615.4,286046996.8,N
1697851635.2,286046996.6,Y
1697851655.0,286046998.6,P
1697851655.9,286046998.6,N
1697851675.8,286046998.2,P
1697851695.6,286047000.8,N
1697851715.5,286047000.4,N
1697851735.3,286046999.9,N
1697851755.1,286047000.4,N
1697851775.9,286047002.4,N
1697851795.7,286046999.8,N
1697851815.5,286047002.6,N
1697851835.4,286046999.8,N
1697851855.2,286047000.5,N
1697851875.1,286047000.5,N
1697851876.0,286047000.5,N
1697851895.8,286046999.8,N
1697851915.6,286046999.8,N
1697851935.5,286047000.3,N
1697851955.3,286047002.1,N
1697851975.1,286047002.5,N
1697852025.9,286047001.3,E
1697852035.8,286047001.3,N
1697852055.7,286047004.0,P
1697852075.5,286047003.7,N
1697852095.4,286047005.6,Y
1697852115.2,286047002.2,P
1697852135.0,286047002.2,P
1697852135.9,286047002.2,P
1697852155.8,286047002.0,Y
1697852175.6,286046998.5,P
1697852195.4,286046998.1,N
1697852215.3,286047000.1,N
1697852235.1,286047002.8,N
1697852255.9,286047001.9,N
1697852275.7,286047004.3,N
1697852295.5,286047001.4,N
1697852315.4,286047002.2,N
1697852335.2,286047002.8,N
1697852355.1,286047000.0,N
1697852356.0,286047000.0,N
1697852375.8,286047000.3,N
1697852395.6,286047000.4,N
1697852415.5,286046999.9,N
1697852435.3,286047002.8,N
1697852455.1,286047002.6,N
1697852475.9,286047002.4,N
1697852495.7,286047002.7,N
1697852515.6,286047000.2,N
1697852535.4,286047002.1,N
1697852555.2,286047002.3,N
1697852575.1,286047001.5,N
1697852576.0,286047001.5,N
1697852595.8,286047001.3,N
1697852615.7,286047003.6,N
1697852665.5,286047003.2,E
1697852675.4,286047004.4,N
1697852695.3,286047004.2,P
1697852715.1,286047005.7,P
1697852735.9,286047005.4,Y
1697852755.7,286047001.2,P
1697852775.5,286046998.4,N
1697852795.4,286047000.8,N
1697852815.2,286047001.0,N
1697852835.0,286046999.8,N
1697852835.9,286046999.8,N
1697852855.8,286047002.4,N
1697852875.6,286047002.7,N
1697852895.5,286047002.7,N
1697852915.3,286047002.8,N
1697852935.1,286047000.6,N
1697852955.9,286047000.7,N
1697852975.7,286046999.9,N
1697852995.5,286046999.7,N
1697853015.4,286046999.7,N
1697853035.2,286047001.0,N
1697853055.1,286047000.6,N
1697853056.0,286047000.6,N
1697853075.8,286047000.8,N
1697853095.6,286047000.8,N
1697853115.5,286046998.3,N
1697853135.3,286047001.2,N
1697853155.1,286047001.2,N
1697853175.9,286046998.3,N
1697853195.7,286047000.7,N
1697853215.6,286047000.5,N
1697853235.4,286047000.4,N
1697853255.2,286047000.2,N
1697853275.1,286047002.8,N
1697853276.0,286047002.8,N
1697853295.8,286047002.7,N
1697853315.6,286047002.4,N
1697853335.5,286047002.8,N
1697853355.3,286047001.9,N
1697853375.2,286047002.8,N
1697853395.9,286047002.3,N
1697853415.7,286047001.3,N
1697853435.6,286047003.7,N
1697853455.4,286047005.6,Y
1697853475.3,286047003.8,P
1697853495.1,286047004.0,P
1697853496.0,286047004.0,P
1697853515.8,286047003.1,N
1697853535.7,286047003.4,Y
1697853555.5,286047002.1,P
1697853575.4,286047001.4,N
1697853595.2,286047003.3,P
